リニア彗星

C/2007 U1 ( LINEAR )

English version
Home page
Updated on October 3, 2010

---------------------------------------------------------------------

・ プロフィール

発見日 2007年10月19日
発見光度 19.4等
発見者 Lincoln Laboratory Near-Earth Asteroid Research project

・ 写真集

・ 軌道要素

The following orbital elements are taken from MPC 66921:

Epoch 2008 Aug. 2.0 TT = JDT 2454680.5
T 2008 Aug. 7.0524 TT                                   MPC
q   3.329192             (2000.0)            P               Q
z  -0.000438       Peri.    0.9281      +0.6536188      +0.6991462
 +/-0.000001       Node    50.0433      +0.6919139      -0.7071664
e   1.001458       Incl.  157.7870      +0.3066556      +0.1054052
From 773 observations 2007 Oct. 19-2009 Aug. 26, mean residual 0".6.

・ 星図

・ 光度変化

        m1 = 3.2 + 5 logΔ + 17.5 log r(t - 75)

---------------------------------------------------------------------

軌道要素はMPCのEphemerides and Orbital Elementsに掲載されたものです。
星図はステラナビゲータ Ver.8 (アストロアーツ) で作成したものです。
光度グラフはComet for Windowsで作成したものです。

---------------------------------------------------------------------

Copyright(C) Seiichi Yoshida (comet@aerith.net). All rights reserved.